Location: Albany
(35.0170°S, 117.8920°E)
Time: 03:04:37
(UTC+08:00)

Vanguard 1 - Pass Details

Date: 03 February 2021
Orbit: 649 x 3833 km, 34.2° (Epoch: 26 February)

Event Time Altitude Azimuth Distance (km) Brightness Sun altitude
Rises 05:08:57 0° 271° (W) 3,042 - -4.8°
Exits shadow 05:10:28 - 281° (W) 2,537 11.6 -4.5°
Reaches altitude 10° 05:12:20 10° 298° (WNW) 2,052 11.1 -4.1°
Maximum altitude 05:14:40 14° 330° (NNW) 1,828 11.0 -3.7°
Drops below altitude 10° 05:17:06 10° 2° (N) 2,172 11.7 -3.2°
Sets 05:20:55 0° 28° (NNE) 3,369 12.9 -2.5°
